Weather History for Uvalde, TX

Change the Weather History Date:

Tuesday, February 19, 2013

  Actual Average (KHDO) Record (KHDO)
Temperature  
Mean Temperature 56 °F -  
Max Temperature 66 °F 66 °F 86 °F (2014)
Min Temperature 47 °F 43 °F 28 °F (2006)
Degree Days  
Heating Degree Days 8    
Growing Degree Days 6 (Base 50)    
Moisture  
Dew Point 29 °F    
Average Humidity 33    
Maximum Humidity 52    
Minimum Humidity 18    
Precipitation  
Precipitation 0.00 in - - ()
Sea Level Pressure  
Sea Level Pressure 30.12 in    
Wind  
Wind Speed 11 mph (East)    
Max Wind Speed 21 mph    
Max Gust Speed 28 mph    
Visibility 10 miles    
Events      
Averages and records for this station are not official NWS values.
T = Trace of Precipitation, MM = Missing Value Source: NWS Daily Summary

Daily Weather History Graph

Daily Weather History Graph

Search for Another Location

Airport:

Trip Planner

Search our weather history database for the weather conditions in past years. The results will help you decide how hot, cold, wet, or windy it might be!

Date:

Astronomy

Feb. 19, 2013 Rise Set
Actual Time 7:14 AM CST 6:31 PM CST
Civil Twilight 6:49 AM CST 6:55 PM CST
Nautical Twilight 6:22 AM CST 7:23 PM CST
Astronomical Twilight 5:54 AM CST 7:51 PM CST
Moon 1:18 PM CST (2/19) 2:33 AM CST (2/19)
Length of Visible Light 12h 05m
Length of Day
11h 17m
Waxing Gibbous, 67% of the Moon is Illuminated
Feb 19
Waxing Gibbous
Feb 25
Full
Mar 4
Last Quarter
Mar 11
New
Mar 19
First Quarter

Hourly Weather History & Observations

Time (CST) Temp. Dew Point Humidity Pressure Visibility Wind Dir Wind Speed Gust Speed Precip Events Conditions
12:15 AM 57.7 °F 20.7 °F 24% 30.04 in 10.0 mi NNE 8.1 mph - N/A   Clear
12:35 AM 59.0 °F 23.0 °F 25% 30.04 in 10.0 mi NE 11.5 mph - N/A   Clear
12:55 AM 59.0 °F 24.8 °F 27% 30.05 in 10.0 mi NE 10.4 mph - N/A   Clear
1:15 AM 58.5 °F 25.3 °F 28% 30.06 in 10.0 mi ENE 6.9 mph - N/A   Clear
1:35 AM 56.1 °F 25.9 °F 31% 30.06 in 10.0 mi ENE 5.8 mph - N/A   Clear
1:55 AM 54.0 °F 26.4 °F 35% 30.06 in 10.0 mi ENE 6.9 mph - N/A   Clear
2:15 AM 53.6 °F 26.8 °F 36% 30.07 in 10.0 mi ENE 5.8 mph - N/A   Clear
2:35 AM 53.4 °F 27.0 °F 36% 30.08 in 10.0 mi NE 8.1 mph - N/A   Clear
2:55 AM 52.7 °F 27.5 °F 38% 30.09 in 10.0 mi ENE 4.6 mph - N/A   Clear
3:15 AM 52.7 °F 28.0 °F 39% 30.10 in 10.0 mi East 5.8 mph - N/A   Clear
3:35 AM 52.7 °F 28.2 °F 39% 30.12 in 10.0 mi East 10.4 mph - N/A   Clear
3:55 AM 52.7 °F 27.9 °F 38% 30.13 in 10.0 mi East 8.1 mph - N/A   Clear
4:15 AM 52.7 °F 28.4 °F 39% 30.13 in 10.0 mi East 8.1 mph - N/A   Clear
4:35 AM 52.7 °F 29.1 °F 40% 30.13 in 10.0 mi East 9.2 mph - N/A   Clear
4:55 AM 52.7 °F 29.3 °F 41% 30.13 in 10.0 mi East 10.4 mph - N/A   Clear
5:15 AM 52.7 °F 30.0 °F 42% 30.13 in 10.0 mi ENE 10.4 mph - N/A   Clear
5:35 AM 50.0 °F 29.7 °F 46% 30.13 in 10.0 mi ENE 11.5 mph - N/A   Clear
5:55 AM 49.1 °F 29.5 °F 47% 30.14 in 10.0 mi ENE 10.4 mph - N/A   Clear
6:15 AM 47.7 °F 28.9 °F 48% 30.16 in 10.0 mi NE 9.2 mph - N/A   Clear
6:35 AM 47.7 °F 29.3 °F 49% 30.17 in 10.0 mi ENE 8.1 mph - N/A   Clear
6:55 AM 47.7 °F 30.2 °F 51% 30.19 in 10.0 mi ENE 6.9 mph - N/A   Clear
7:15 AM 47.7 °F 30.2 °F 51% 30.19 in 10.0 mi ENE 9.2 mph - N/A   Clear
7:35 AM 47.7 °F 30.6 °F 52% 30.20 in 10.0 mi ENE 8.1 mph - N/A   Clear
7:55 AM 47.7 °F 29.8 °F 50% 30.20 in 10.0 mi ENE 10.4 mph - N/A   Clear
8:15 AM 50.2 °F 29.3 °F 45% 30.21 in 10.0 mi ENE 11.5 mph - N/A   Clear
8:35 AM 52.7 °F 30.0 °F 42% 30.22 in 10.0 mi ENE 11.5 mph 16.1 mph N/A   Clear
8:55 AM 52.7 °F 29.3 °F 41% 30.23 in 10.0 mi ENE 16.1 mph - N/A   Clear
9:15 AM 55.4 °F 30.0 °F 38% 30.23 in 10.0 mi East 15.0 mph 27.6 mph N/A   Clear
9:35 AM 57.6 °F 30.4 °F 36% 30.23 in 10.0 mi East 16.1 mph 25.3 mph N/A   Clear
9:55 AM 57.7 °F 30.0 °F 35% 30.23 in 10.0 mi East 16.1 mph 21.9 mph N/A   Clear
10:15 AM 57.6 °F 30.0 °F 35% 30.23 in 10.0 mi East 15.0 mph 20.7 mph N/A   Clear
10:35 AM 57.7 °F 29.5 °F 34% 30.23 in 10.0 mi East 15.0 mph 19.6 mph N/A   Clear
10:55 AM 59.0 °F 29.5 °F 33% 30.22 in 10.0 mi East 13.8 mph - N/A   Clear
11:15 AM 60.3 °F 29.1 °F 31% 30.22 in 10.0 mi East 12.7 mph 18.4 mph N/A   Clear
11:35 AM 60.3 °F 27.9 °F 29% 30.22 in 10.0 mi East 12.7 mph 18.4 mph N/A   Clear
11:55 AM 61.0 °F 27.5 °F 28% 30.22 in 10.0 mi East 13.8 mph 19.6 mph N/A   Clear
12:35 PM 63.1 °F 27.5 °F 26% 30.20 in 10.0 mi East 15.0 mph 18.4 mph N/A   Overcast
12:55 PM 62.8 °F 27.1 °F 26% 30.19 in 10.0 mi East 15.0 mph - N/A   Overcast
1:15 PM 64.2 °F 27.7 °F 25% 30.18 in 10.0 mi ESE 11.5 mph 17.3 mph N/A   Overcast
1:35 PM 66.0 °F 28.6 °F 25% 30.15 in 10.0 mi ESE 16.1 mph 19.6 mph N/A   Scattered Clouds
1:55 PM 65.3 °F 29.3 °F 26% 30.14 in 10.0 mi East 15.0 mph 19.6 mph N/A   Mostly Cloudy
2:15 PM 65.3 °F 29.8 °F 26% 30.13 in 10.0 mi ESE 12.7 mph 17.3 mph N/A   Mostly Cloudy
2:35 PM 65.3 °F 29.7 °F 26% 30.12 in 10.0 mi East 13.8 mph 18.4 mph N/A   Mostly Cloudy
2:55 PM 65.3 °F 29.8 °F 26% 30.11 in 10.0 mi ESE 11.5 mph 17.3 mph N/A   Overcast
3:15 PM 65.3 °F 29.3 °F 26% 30.11 in 10.0 mi East 13.8 mph - N/A   Overcast
3:35 PM 65.3 °F 28.4 °F 25% 30.10 in 10.0 mi ESE 12.7 mph - N/A   Overcast
3:55 PM 65.3 °F 29.3 °F 26% 30.08 in 10.0 mi ESE 13.8 mph - N/A   Overcast
4:15 PM 65.7 °F 30.4 °F 27% 30.08 in 10.0 mi East 12.7 mph 18.4 mph N/A   Overcast
4:35 PM 65.3 °F 31.3 °F 28% 30.07 in 10.0 mi ESE 13.8 mph 19.6 mph N/A   Overcast
4:55 PM 65.3 °F 31.8 °F 29% 30.06 in 10.0 mi ESE 17.3 mph 23.0 mph N/A   Overcast
5:15 PM 65.3 °F 32.0 °F 29% 30.07 in 10.0 mi East 11.5 mph 19.6 mph N/A   Overcast
5:35 PM 65.3 °F 32.0 °F 29% 30.06 in 10.0 mi ESE 15.0 mph 21.9 mph N/A   Overcast
6:35 PM 65.3 °F 32.0 °F 29% 30.06 in 10.0 mi ESE 10.4 mph - N/A   Overcast
6:55 PM 65.3 °F 32.0 °F 29% 30.05 in 10.0 mi ESE 12.7 mph - N/A   Overcast
7:15 PM 65.3 °F 32.0 °F 29% 30.06 in 10.0 mi ESE 9.2 mph - N/A   Overcast
7:55 PM 65.3 °F 32.0 °F 29% 30.05 in 10.0 mi ESE 10.4 mph - N/A   Overcast
8:15 PM 65.1 °F 32.4 °F 29% 30.06 in 10.0 mi ESE 9.2 mph - N/A   Overcast
8:35 PM 62.8 °F 32.0 °F 32% 30.05 in 10.0 mi ESE 11.5 mph 17.3 mph N/A   Overcast
8:55 PM 62.8 °F 34.2 °F 34% 30.05 in 10.0 mi ESE 13.8 mph 19.6 mph N/A   Overcast
9:15 PM 62.8 °F 33.8 °F 34% 30.04 in 10.0 mi ESE 13.8 mph - N/A   Overcast
9:35 PM 62.8 °F 34.0 °F 34% 30.05 in 10.0 mi ESE 20.7 mph 25.3 mph N/A   Overcast
9:55 PM 62.6 °F 32.9 °F 33% 30.06 in 10.0 mi SE 12.7 mph 25.3 mph N/A   Overcast
10:15 PM 61.7 °F 28.2 °F 28% 30.06 in 10.0 mi ESE 17.3 mph 24.2 mph N/A   Overcast
10:35 PM 61.7 °F 22.8 °F 23% 30.08 in 10.0 mi ESE 13.8 mph - N/A   Overcast
10:55 PM 61.0 °F 20.7 °F 21% 30.07 in 10.0 mi ESE 11.5 mph 17.3 mph N/A   Overcast
11:15 PM 60.6 °F 19.4 °F 20% 30.07 in 10.0 mi ESE 9.2 mph - N/A   Overcast
11:35 PM 60.3 °F 17.2 °F 19% 30.06 in 10.0 mi ESE 15.0 mph 20.7 mph N/A   Overcast
11:55 PM 59.5 °F 15.4 °F 18% 30.06 in 10.0 mi ESE 16.1 mph 24.2 mph N/A   Overcast